Regional Weather Roundup
Issued by NWS

Home | Current Version | Previous Version | Graphics & Text | Print | Product List | Glossary On
Versions: 1 2 3 4 5 6 7 8 9 10 11 12 13 14 15 16 17 18 19 20 21 22 23 24 25 26 27 28
000
ASUS45 KBOI 230310
RWRID

IDAHO REGIONAL WEATHER ROUNDUP
NATIONAL WEATHER SERVICE BOISE ID
800 PM MST WED FEB 22 2017

NOTE: "FAIR" INDICATES FEW OR NO CLOUDS BELOW 12000 FEET
WITH NO SIGNIFICANT WEATHER AND/OR OBSTRUCTIONS TO VISIBILITY

IDZ012-014-230400-
SOUTHWEST IDAHO


CITY           SKY/WX    TMP DP  RH WIND       PRES   REMARKS
BOISE          CLOUDY    34  29  82 NW15      29.87F WCI  24
CALDWELL       LGT RAIN  34  31  88 W16       29.91S WCI  24
MOUNTAIN HOME  MIX PCPN  32  32 100 NW20      29.84F WCI  20
$$

IDZ016-017-230400-
SOUTHCENTRAL IDAHO


CITY           SKY/WX    TMP DP  RH WIND       PRES   REMARKS
BURLEY         FLURRIES  33  28  81 W5        29.78F WCI  29
JEROME           N/A    N/A N/A N/A MISG      29.78F
TWIN FALLS     MOCLDY    28  26  92 SW16      29.78F WCI  16
$$

IDZ019>023-230400-
SOUTHEAST IDAHO


CITY           SKY/WX    TMP DP  RH WIND       PRES   REMARKS
IDAHO FALLS    CLOUDY    31  27  85 N7        29.77F WCI  24
POCATELLO      CLOUDY    32  27  81 SW7       29.78F WCI  26
REXBURG        CLOUDY    30  26  85 NE5       29.77F WCI  25
$$

IDZ006-010-011-018-031-032-230400-
CENTRAL IDAHO MOUNTAINS


CITY           SKY/WX    TMP DP  RH WIND       PRES   REMARKS
MCCALL         CLOUDY    27  21  78 NW6       29.81S WCI  20
HAILEY         MOCLDY    28  19  69 N5        29.77F WCI  23
STANLEY          N/A     21  16  81 CALM      29.75S
SALMON         CLOUDY    30  25  80 CALM      29.81F
CHALLIS        CLOUDY    31  16  54 NW8       29.77F WCI  23
$$

IDZ002-004-006-007-026-230400-
NORTHERN IDAHO


CITY           SKY/WX    TMP DP  RH WIND       PRES   REMARKS
LEWISTON       MOCLDY    38  28  67 VRB3      30.04S
LOWELL           N/A     35  33  92 CALM      30.04S
COEUR D`ALENE  MOCLDY    28  26  92 S3        30.03S
MULLAN PASS    FOG       20  19  96 NW5       29.86S VSB 3/4 WCI  13
$$




USA.gov is the U.S. government's official web portal to all federal, state and local government web resources and services.